{"data":{"norad_id":69437,"epoch":"2026-09-19T09:55:34.632192Z","epoch_age_seconds":119289,"freshness":"FRESH","line1":"1 69437U 26126T   26262.41359528  .00011592  00000+0  36089-3 0  9997","line2":"2 69437  97.2849 123.6009 0002118  85.5658 274.5827 15.33440065 17408","mean_motion":15.33440065,"eccentricity":0.0002118,"inclination_deg":97.2849,"raan_deg":123.6009,"arg_perigee_deg":85.5658,"mean_anomaly_deg":274.5827,"bstar":0.00036089,"rev_number":1740,"period_min":93.906506870877,"perigee_km":464.1083630346,"apogee_km":467.00735217628,"semimajor_km":6843.6948576054,"source":"CELESTRAK","updated_at":"2026-09-20T09:00:44.197638Z"}}